TimeCST,TemperatureF,Dew PointF,Humidity,Sea Level PressureIn,VisibilityMPH,Wind Direction,Wind SpeedMPH,Gust SpeedMPH,PrecipitationIn,Events,Conditions,WindDirDegrees,DateUTC
12:15 AM,30.2,23.0,75,30.43,10.0,SE,5.8,-,N/A,,Clear,140,2013-11-30 06:15:00
12:35 AM,30.2,23.0,75,30.42,10.0,SE,4.6,-,N/A,,Clear,140,2013-11-30 06:35:00
12:55 AM,30.2,23.0,75,30.42,10.0,SE,3.5,-,N/A,,Clear,130,2013-11-30 06:55:00
1:15 AM,30.2,23.0,75,30.41,10.0,ESE,4.6,-,N/A,,Clear,120,2013-11-30 07:15:00
1:35 AM,30.2,23.0,75,30.41,10.0,SE,4.6,-,N/A,,Clear,140,2013-11-30 07:35:00
1:55 AM,30.2,23.0,75,30.41,10.0,SE,3.5,-,N/A,,Clear,130,2013-11-30 07:55:00
2:15 AM,30.2,23.0,75,30.40,10.0,SE,5.8,-,N/A,,Clear,140,2013-11-30 08:15:00
2:35 AM,30.2,23.0,75,30.40,10.0,SSE,4.6,-,N/A,,Clear,150,2013-11-30 08:35:00
2:55 AM,30.2,24.8,80,30.39,10.0,SSE,5.8,-,N/A,,Clear,160,2013-11-30 08:55:00
3:15 AM,32.0,23.0,69,30.39,10.0,SSE,5.8,-,N/A,,Clear,160,2013-11-30 09:15:00
3:35 AM,32.0,23.0,69,30.38,10.0,SSE,8.1,-,N/A,,Clear,160,2013-11-30 09:35:00
3:55 AM,32.0,23.0,69,30.38,10.0,SSE,8.1,-,N/A,,Clear,160,2013-11-30 09:55:00
4:15 AM,32.0,23.0,69,30.37,10.0,SSE,9.2,-,N/A,,Clear,160,2013-11-30 10:15:00
4:35 AM,32.0,23.0,69,30.36,10.0,SSE,6.9,-,N/A,,Clear,160,2013-11-30 10:35:00
4:55 AM,30.2,23.0,75,30.36,10.0,SSE,8.1,-,N/A,,Clear,160,2013-11-30 10:55:00
5:15 AM,32.0,24.8,75,30.35,10.0,SSE,10.4,-,N/A,,Clear,160,2013-11-30 11:15:00
5:35 AM,32.0,24.8,75,30.34,10.0,SSE,10.4,-,N/A,,Clear,160,2013-11-30 11:35:00
5:55 AM,32.0,24.8,75,30.34,10.0,SSE,10.4,-,N/A,,Clear,160,2013-11-30 11:55:00
6:15 AM,32.0,24.8,75,30.34,10.0,SSE,10.4,-,N/A,,Clear,160,2013-11-30 12:15:00
6:35 AM,32.0,24.8,75,30.34,10.0,South,10.4,-,N/A,,Clear,170,2013-11-30 12:35:00
6:55 AM,32.0,24.8,75,30.34,10.0,South,10.4,-,N/A,,Clear,170,2013-11-30 12:55:00
7:15 AM,32.0,26.6,80,30.33,10.0,South,9.2,-,N/A,,Clear,170,2013-11-30 13:15:00
7:35 AM,32.0,26.6,80,30.32,10.0,SSE,11.5,-,N/A,,Clear,160,2013-11-30 13:35:00
7:55 AM,32.0,26.6,80,30.32,10.0,South,9.2,-,N/A,,Clear,170,2013-11-30 13:55:00
8:15 AM,33.8,26.6,75,30.32,10.0,South,11.5,-,N/A,,Clear,180,2013-11-30 14:15:00
8:35 AM,35.6,26.6,70,30.31,10.0,South,10.4,-,N/A,,Clear,180,2013-11-30 14:35:00
8:55 AM,35.6,26.6,70,30.30,10.0,South,10.4,-,N/A,,Clear,180,2013-11-30 14:55:00
9:15 AM,37.4,26.6,65,30.29,10.0,South,11.5,-,N/A,,Clear,190,2013-11-30 15:15:00
9:35 AM,41.0,26.6,57,30.28,10.0,South,12.7,-,N/A,,Clear,180,2013-11-30 15:35:00
9:55 AM,42.8,26.6,53,30.28,10.0,South,11.5,-,N/A,,Clear,180,2013-11-30 15:55:00
10:15 AM,42.8,26.6,53,30.27,10.0,South,13.8,19.6,N/A,,Clear,190,2013-11-30 16:15:00
10:35 AM,44.6,26.6,49,30.26,10.0,South,17.3,-,N/A,,Clear,190,2013-11-30 16:35:00
10:55 AM,46.4,26.6,46,30.24,10.0,South,19.6,-,N/A,,Clear,190,2013-11-30 16:55:00
11:15 AM,46.4,26.6,46,30.23,10.0,South,19.6,24.2,N/A,,Clear,190,2013-11-30 17:15:00
11:35 AM,48.2,26.6,43,30.22,10.0,SSW,18.4,21.9,N/A,,Clear,200,2013-11-30 17:35:00
11:55 AM,48.2,26.6,43,30.21,10.0,SSW,16.1,25.3,N/A,,Clear,210,2013-11-30 17:55:00
12:15 PM,50.0,26.6,40,30.19,10.0,SSW,16.1,-,N/A,,Clear,200,2013-11-30 18:15:00
12:35 PM,50.0,26.6,40,30.18,10.0,SSW,15.0,-,N/A,,Clear,200,2013-11-30 18:35:00
12:55 PM,50.0,26.6,40,30.17,10.0,South,13.8,-,N/A,,Clear,190,2013-11-30 18:55:00
1:15 PM,50.0,26.6,40,30.15,10.0,SSW,15.0,-,N/A,,Clear,200,2013-11-30 19:15:00
1:35 PM,50.0,26.6,40,30.14,10.0,SSW,13.8,-,N/A,,Clear,200,2013-11-30 19:35:00
1:55 PM,51.8,26.6,38,30.14,10.0,SSW,15.0,-,N/A,,Clear,200,2013-11-30 19:55:00
2:15 PM,50.0,26.6,40,30.14,10.0,SSW,16.1,-,N/A,,Clear,200,2013-11-30 20:15:00
2:35 PM,50.0,26.6,40,30.13,10.0,South,17.3,20.7,N/A,,Clear,190,2013-11-30 20:35:00
2:55 PM,50.0,26.6,40,30.12,10.0,SSW,15.0,21.9,N/A,,Clear,200,2013-11-30 20:55:00
3:15 PM,50.0,26.6,40,30.12,10.0,SSW,12.7,-,N/A,,Clear,200,2013-11-30 21:15:00
3:35 PM,48.2,26.6,43,30.12,10.0,South,12.7,-,N/A,,Clear,190,2013-11-30 21:35:00
3:55 PM,46.4,28.4,50,30.12,10.0,SSW,9.2,-,N/A,,Clear,200,2013-11-30 21:55:00
4:15 PM,42.8,28.4,57,30.12,10.0,SSW,6.9,-,N/A,,Clear,200,2013-11-30 22:15:00
4:35 PM,41.0,28.4,61,30.12,10.0,SSW,6.9,-,N/A,,Clear,200,2013-11-30 22:35:00
4:55 PM,41.0,28.4,61,30.12,10.0,South,6.9,-,N/A,,Clear,190,2013-11-30 22:55:00
5:15 PM,39.2,28.4,65,30.12,10.0,South,5.8,-,N/A,,Clear,190,2013-11-30 23:15:00
5:35 PM,37.4,28.4,70,30.12,10.0,South,6.9,-,N/A,,Clear,180,2013-11-30 23:35:00
5:55 PM,39.2,28.4,65,30.12,10.0,South,6.9,-,N/A,,Clear,180,2013-11-30 23:55:00
6:15 PM,39.2,28.4,65,30.12,10.0,South,9.2,-,N/A,,Clear,190,2013-12-01 00:15:00
6:35 PM,39.2,28.4,65,30.12,10.0,South,9.2,-,N/A,,Clear,180,2013-12-01 00:35:00
6:55 PM,41.0,28.4,61,30.12,10.0,South,11.5,-,N/A,,Clear,180,2013-12-01 00:55:00
7:15 PM,41.0,28.4,61,30.11,10.0,South,10.4,-,N/A,,Clear,180,2013-12-01 01:15:00
7:35 PM,39.2,28.4,65,30.11,10.0,South,9.2,-,N/A,,Clear,190,2013-12-01 01:35:00
7:55 PM,37.4,28.4,70,30.12,10.0,SSW,9.2,-,N/A,,Clear,200,2013-12-01 01:55:00
8:15 PM,37.4,28.4,70,30.11,10.0,South,6.9,-,N/A,,Mostly Cloudy,190,2013-12-01 02:15:00
8:35 PM,37.4,28.4,70,30.11,10.0,South,5.8,-,N/A,,Overcast,190,2013-12-01 02:35:00
8:55 PM,37.4,28.4,70,30.11,10.0,South,4.6,-,N/A,,Overcast,190,2013-12-01 02:55:00
9:15 PM,37.4,28.4,70,30.11,10.0,South,3.5,-,N/A,,Overcast,190,2013-12-01 03:15:00
9:35 PM,37.4,28.4,70,30.11,10.0,South,4.6,-,N/A,,Overcast,190,2013-12-01 03:35:00
9:55 PM,37.4,28.4,70,30.10,10.0,South,4.6,-,N/A,,Overcast,190,2013-12-01 03:55:00
10:15 PM,39.2,28.4,65,30.10,10.0,SSW,5.8,-,N/A,,Overcast,200,2013-12-01 04:15:00
10:35 PM,35.6,28.4,75,30.10,10.0,SSW,6.9,-,N/A,,Mostly Cloudy,200,2013-12-01 04:35:00
10:55 PM,35.6,28.4,75,30.10,10.0,South,5.8,-,N/A,,Clear,190,2013-12-01 04:55:00
11:15 PM,35.6,28.4,75,30.10,10.0,SSW,8.1,-,N/A,,Clear,210,2013-12-01 05:15:00
11:35 PM,35.6,28.4,75,30.09,10.0,SSW,9.2,-,N/A,,Clear,210,2013-12-01 05:35:00
11:55 PM,33.8,28.4,81,30.09,10.0,SSW,5.8,-,N/A,,Clear,210,2013-12-01 05:55:00